Regional Weather Roundup
Issued by NWS Upton, NY

Current Version | Previous Version | Text Only | Print | Product List | Glossary Off
Versions: 1 2 3 4 5 6 7 8 9 10 11 12 13 14 15 16 17 18 19 20 21 22 23 24 25 26 27 28 29 30 31 32 33 34 35 36 37 38 39 40 41 42 43 44 45 46 47 48 49 50

000
ASUS41 KOKX 250507
RWROKX

REGIONAL WEATHER ROUNDUP
NATIONAL WEATHER SERVICE NEW YORK NY
100 AM EDT SAT APR 25 2015

NOTE: "FAIR" INDICATES FEW OR NO CLOUDS BELOW 12,000 FEET WITH NO
SIGNIFICANT WEATHER AND/OR OBSTRUCTIONS TO VISIBILITY.

NYZ071-072-176-178-NJZ106-104-250600-
NEW YORK CITY METRO AREA


CITY           SKY/WX    TMP DP  RH WIND       PRES   REMARKS
CENTRAL PARK   CLEAR     39  20  46 VRB5      29.95F
LAGUARDIA APRT CLEAR     40  23  50 NW16      29.93S WCI  31
KENNEDY INTL   CLEAR     40  19  43 N13G23    29.93S WCI  32
NEWARK/LIBERTY CLEAR     40  21  46 NW10      29.94S WCI  33
BRNX BOT. GARD   N/A     37  21  52 NW1       29.94R
TETERBORO      CLEAR     38  20  48 N7        29.92F WCI  33
$$

NYZ177-179-078>081-250600-
LONG ISLAND NEW YORK

CITY           SKY/WX    TMP DP  RH WIND       PRES   REMARKS
FARMINGDALE    CLEAR     38  20  48 NW8       29.92S WCI  32
ISLIP          CLEAR     37  21  52 NW10      29.89S WCI  30
SHIRLEY        CLEAR     36  21  54 NW6       29.90F WCI  31
WESTHAMPTON    CLEAR     37  20  50 NW12      29.91R WCI  29
MONTAUK POINT    N/A     40  22  48 NW14      29.87S WCI  32
$$

NYZ052-065-067-250600-
HUDSON VALLEY

CITY           SKY/WX    TMP DP  RH WIND       PRES   REMARKS
WHITE PLAINS   CLEAR     36  20  52 NW10      29.88F WCI  28
NEWBURGH       CLEAR     34  23  64 W8        29.90F WCI  27
MONTGOMERY     CLEAR     32  21  64 W8        29.90F WCI  25
POUGHKEEPSIE   CLEAR     35  21  56 W5        29.89F WCI  31
ALBANY         PTCLDY    35  21  56 NW8       29.88F WCI  29
$$

NJZ001-105-106-008-010-013-015-019>022-104-250600-
NEW JERSEY

CITY           SKY/WX    TMP DP  RH WIND       PRES   REMARKS
NEWARK/LIBERTY CLEAR     40  21  46 NW10      29.94S WCI  33
TETERBORO      CLEAR     38  20  48 N7        29.92F WCI  33
CALDWELL       CLEAR     37  20  50 NW5       29.94F WCI  33
MORRISTOWN     CLEAR     39  21  48 CALM      29.94S
SOMERVILLE     CLEAR     32  23  69 CALM      29.93S
SUSSEX         CLEAR     32  21  64 N3        29.93F
ANDOVER          N/A     33  22  63 CALM      29.93S
TRENTON        CLEAR     38  20  48 CALM      29.94F
MILLVILLE      CLEAR     39  26  59 NE5       29.95S
ATLANTIC CITY  CLEAR     36  24  62 NE5       29.96R WCI  32
WRIGHTSTOWN    CLEAR     35  22  57 N10       29.93S WCI  28
TOMS RIVER     CLEAR     30  21  69 CALM      29.96S
BELMAR         CLEAR     37  18  44 NW5       29.94S WCI  34
$$

PAZ047>061-062-071-250600-
EASTERN PENNSYLVANIA

CITY           SKY/WX    TMP DP  RH WIND       PRES   REMARKS
PHILADELPHIA   PTCLDY    43  20  39 N12       29.97S
ALLENTOWN      CLEAR     36  22  56 NW6       29.94F WCI  31
SCRANTON       CLOUDY    34  23  64 S3        29.92F
$$

CTZ002-004>006-009-010-012-RIZ004-006-007-MAZ004-011-015-250600-
SOUTHERN NEW ENGLAND
 IN CT

CITY           SKY/WX    TMP DP  RH WIND       PRES   REMARKS
BRADLEY INTL   PTCLDY    36  20  52 NW9       29.84F WCI  29
HARTFORD       CLEAR     37  20  50 W9        29.86F WCI  30
DANBURY        CLEAR     33  18  53 W6        29.89F WCI  28
WTRBRY/OXFORD  CLEAR     34  18  51 NW3       29.87F
BRIDGEPORT     CLEAR     36  22  56 W6        29.90S WCI  31
MERIDEN        CLEAR     33  22  63 W3        29.87F
NEW HAVEN      CLEAR     38  22  52 NW8       29.88F WCI  32
CHESTER        FAIR      36  21  55 NW9G16    29.84F WCI  29
GROTON         CLEAR     37  19  48 NW8       29.84F WCI  31
WILLIMANTIC    CLEAR     36  21  54 NW6       29.84F WCI  31

 IN RI

CITY           SKY/WX    TMP DP  RH WIND       PRES   REMARKS
PROVIDENCE     CLEAR     37  20  50 W10       29.82S WCI  30
BLOCK ISLAND   CLEAR     37  21  52 NW9G21    29.84S WCI  31
WESTERLY       CLEAR     37  20  50 NW5       29.85R WCI  33

 IN MA

CITY           SKY/WX    TMP DP  RH WIND       PRES   REMARKS
BOSTON         PTCLDY    40  21  46 NW12G20   29.78F WCI  33
WORCESTER      PTCLDY    33  19  56 W9        29.76F WCI  25
WESTFIELD      CLEAR     36  20  52 NW12      29.84S WCI  28
PROVINCETOWN   CLOUDY   N/A N/A N/A NW17G28   29.77S
NANTUCKET      CLEAR     42  25  50 NW16G22   29.78S
$$

ANZ330-335-338-340-345-350-353-355-250600-
COASTAL MARINE OBSERVATIONS


STATION/POSITION TIME  SKY/WX   TEMP    WIND        PRES    VSBY  WAVE
                                AIR SEA DIR/SP/G                  HT/PER
                 (UTC)          (F)     (DEG/KT/KT) (MB)    (MI)  (FT/S)
NY HARB ENTRANCE 0450            42 44  330/ 19/ 23 1012.9          4/ 5
4S FIRE IS       0403               43                N/A           2/12
20S FIRE ISLAND  0450            41 43  340/ 19/ 23 1012.8          4/ 5
23SW MTP         0350                                 N/A           4/ 5
HUDSON CANYON    NOT AVBL
EXECUTION ROCKS  NOT AVBL
WESTERN LI SOUND NOT AVBL
CENTRAL LI SOUND NOT AVBL
EASTERN LI SOUND 0400            40     320/ 14/ 19   N/A
ROBBINS REEF     0418            40     330/ 18/ 24 1012.4
$$


>>>>>>>>>>>>>>>>>>>>>>>>>>>> KEY <<<<<<<<<<<<<<<<<<<<<<<<<<<
>                                                          <
>     SKY/WX - SKY CONDITION/PRESENT WEATHER               <
>     TMP    - TEMPERATURE IN FAHRENHEIT                   <
>     DP     - DEWPOINT IN FAHRENHEIT                      <
>     RH     - RELATIVE HUMIDITY IN PERCENT                <
>     WIND   - DIRECTION AND SPEED IN MPH                  <
>     PRES   - MEAN SEA LEVEL PRESSURE IN INCHES OF HG     <
>     WCI    - WIND CHILL INDEX                            <
>     VSB    - VISIBILITY IN MILES                         <
>     HX     - HEAT INDEX                                  <
>     TC     - TEMPERATURE IN CELSIUS                      <
>     VRB    - VARIABLE WIND DIRECTION                     <
>                                                          <
>>>>>>>>>>>>>>>>>>>>>>>>>>>> KEY <<<<<<<<<<<<<<<<<<<<<<<<<<<




USA.gov is the U.S. government's official web portal to all federal, state and local government web resources and services.